{"data":{"norad_id":68451,"intl_designator":"2026-067AM","name":"IRIDE-MS1-EAGLET 2-10","alt_names":[],"object_type":"PAYLOAD","status":"ACTIVE","operator":null,"country":"IT","launch_date":"2026-03-30","launch_site_code":"AFWTR","launch_vehicle":null,"mission":null,"orbit_class":"UNKNOWN","rcs_meters":null,"size_class":null,"mass_kg":null,"dimensions":null,"purposes":[],"wikipedia_slug":null,"has_3d_model":false,"image_url":null,"decayed_at":null,"tle_current":{"epoch":"2026-05-25T04:41:46.624128Z","epoch_age_seconds":54255,"freshness":"FRESH","line1":"1 68451U 26067AM  26145.19567852  .00006887  00000+0  33680-3 0  9997","line2":"2 68451  97.4490 103.9887 0003477  93.5725 266.5907 15.18525756  8454","mean_motion":15.18525756,"eccentricity":0.0003477,"inclination_deg":97.449,"raan_deg":103.9887,"arg_perigee_deg":93.5725,"mean_anomaly_deg":266.5907,"bstar":0.0003368,"rev_number":845,"period_min":94.828816324667,"perigee_km":507.90027440161,"apogee_km":512.69049028029,"semimajor_km":6888.432382341,"source":"CELESTRAK","updated_at":"2026-05-25T13:38:07.842423Z"}}}